Regional Weather Roundup
Issued by NWS Cleveland, OH

Home | Current Version | Previous Version | Graphics & Text | Print | Product List | Glossary On
Versions: 1 2 3 4 5 6 7 8 9 10 11 12 13 14 15 16 17 18 19 20 21 22 23 24 25 26 27 28 29 30 31 32 33 34 35 36 37 38 39 40 41 42 43 44 45 46 47 48 49 50
000
ASUS41 KCLE 310800
RWRCLE
OHIO REGIONAL WEATHER ROUNDUP
NATIONAL WEATHER SERVICE WILMINGTON, OH
400 AM EDT MON AUG 31 2015

NOTE: "FAIR" INDICATES FEW OR NO CLOUDS BELOW 12,000 FEET WITH NO
SIGNIFICANT WEATHER AND/OR OBSTRUCTIONS TO VISIBILITY.

OHZ001>008-015>018-024>027-034-035-043-044-310900-
   NORTHWEST OHIO

CITY           SKY/WX    TMP DP  RH WIND       PRES   REMARKS
DEFIANCE       FOG       65  64  97 CALM      30.04F VSB 1/4
FINDLAY        CLEAR     67  64  90 S3        30.04F
TOLEDO EXPRESS CLEAR     65  64  97 CALM      30.04R FOG
TOLEDO EXEC    CLEAR     68  64  87 W5        30.04S
LIMA           CLEAR     66  64  93 S3        30.06S
$$

OHZ009>014-019>023-028>033-038-089-310900-
   NORTHEAST OHIO

CITY           SKY/WX    TMP DP  RH WIND       PRES   REMARKS
CLE-HOPKINS    PTCLDY    69  64  84 S6        30.07S
CLE-LAKEFRONT  CLEAR     73  64  73 S8        30.03S
CUY CO. ARPT   NOT AVBL
LORAIN-ELYRIA  CLEAR     66  63  90 SW6       30.06S
ASHTABULA      CLEAR     67  66  97 S3        30.06S
AKRON-CANTON   CLEAR     67  63  87 SW5       30.08S
WOOSTER        NOT AVBL
MANSFIELD      CLEAR     66  64  93 SW3       30.08S
YOUNGSTOWN     MOCLDY    69  63  81 S5        30.08R
$$

OHZ042-051>053-060>062-070>072-077>081-310900-
  SOUTHWEST OHIO

CITY           SKY/WX    TMP DP  RH WIND       PRES   REMARKS
CINC-COVINGTON PTCLDY    69  66  90 CALM      30.08F
CINC-LUNKEN    PTCLDY    66  66 100 CALM      30.08S FOG
HAMILTON       FOG       64  63  96 CALM      30.08F VSB 3/4
DAYTON         NOT AVBL
WRIGHT-PAT AFB CLEAR     67  66  97 CALM      30.07F
DAYTON GENERAL CLEAR     67  64  90 S7        30.07F
WILMINGTON     CLEAR     66  63  90 CALM      30.09S
$$

OHZ036-037-039>041-045>050-054>059-063>069-073>076-082>088-310900-
  CENTRAL AND SOUTHEAST OHIO

CITY           SKY/WX    TMP DP  RH WIND       PRES   REMARKS
COLUMBUS       CLEAR     69  65  86 CALM      30.07S
OSU AIRPORT    CLEAR     68  65  90 S5        30.07F
BOLTON FIELD   NOT AVBL
RICKENBACK AFB NOT AVBL
NEWARK         CLEAR     64  63  96 CALM      30.07F
MARION         CLEAR     65  63  93 S5        30.07S
LANCASTER      CLEAR     63  61  93 CALM      30.08S
ZANESVILLE     PTCLDY    66  63  90 CALM      30.08S FOG
NEW PHILLY     PTCLDY    65  65 100 SE3       30.08F
$$


USA.gov is the U.S. government's official web portal to all federal, state and local government web resources and services.